NOAA 16 DEB

Satellite information

Favourite Embed

Satellite Type and Status

DEBRISIN ORBIT

Key statistics

Satellite NOAA 16 DEB at a glance.

Uptime

8994

Days in orbit

Revolutions

≈ 14.2

Per day

Orbit

SSO

Sun Synchronous Orbit

Inclination

98.7

Latest

Satellite identification and parameters

Extended collection of information and parameters for NOAA 16 DEB.

Object identification

Identified? True

Debris? True

Object name: NOAA 16 DEB

International designator: 2000-055KE

Object number (NORAD): 41401

Object ID (CCSDS): 41401

Country: UNITED STATES OF AMERICA (US)

Current information (Y/N): Y

RCS size: SMALL

Orbital parameters

Period: 101.336 minutes

Inclination: 98.6832 deg

SMA: 7200.061 km

Apoapsis: 834.298 km

Periapsis: 809.554 km

RAAN: 161.2357 deg

Eccentricy: 0.0017183

Argument of periapsis: 275.6963 deg

Mean anomaly: 84.2255 deg

Mean motion: 14.21014425 rev/day

Mean motion (dot): 0.00004331 rev/day2

B* drag term: 0.0020138 1/REarth

Two-line elements (TLE)

Creation date: May 6, 2025, 3:54 a.m.

Reference frame: TEME

Reference center: EARTH

Epoch: May 5, 2025, 8:23 a.m. UTC

TLE line 0: 0 NOAA 16 DEB

TLE line 1: 1 41401U 00055KE 25125.34970968 .00004331 00000-0 20138-2 0 9998

TLE line 2: 2 41401 98.6832 161.2357 0017183 275.6963 84.2255 14.21014425475524

Live tracking on map

Real-time ground track for satellite NOAA 16 DEB.

In-orbit conjunctions

A list of the most updated potential collisions computed for object NOAA 16 DEB.

Target Orbit TCA Probability of collision Miss distance Type
THORAD AGENA D DEB SSO 2025-04-04 10:32:01 0.0001298632 195.0 (m) DEBRIS
CZ-6A DEB LEO 2024-11-15 17:55:42 0.0001493098 670.0 (m) DEBRIS
GEOS 3 SSO 2024-08-26 00:00:50 0.0001317553 211.0 (m) PAYLOAD
COSMOS 1980 DEB LEO 2024-07-13 00:56:39 0.0001369783 284.0 (m) DEBRIS

Associated space launch

The NOAA K, L and M POES satellites begin the fifth generation of improved environmental monitoring in support of NOAA missions. The instrument payload has significant improvements and additions/deletions. The instrument changes have effected the spacecraft subsystems and data formats.

NOAA 16 DEB was lifted into orbit during the mission ‘Titan II SLV | NOAA 16’, on board a Titan II SLV space rocket.

The launch took place on Sept. 21, 2000, 10:22 a.m. from Space Launch Complex 4W.

For more information about the launch, click the button.

Launch to space Titan II SLV | NOAA 16
Titan II SLV | NOAA 16

Agency: N/A

Status: Launch Successful

Launch date: Sept. 21, 2000, 10:22 a.m. UTC

Rocket: Titan II SLV

Launch pad: Space Launch Complex 4W

Location: Vandenberg SFB, CA, USA

...

Latest news about this satellite

There are no fresh news available about this satellite. Check back as we update our databases every day.


Newsletter sign-up

Weekly statistics, charts and insights to help you stay on top of the space industry.